This is the latest recevied weather packets stored in our database for station/object KD5UMO-1. If no packets are shown the sender has not sent any weather packets the latest 10 day(s).
| Time | Temp. | Humidity | Pressure | Rain* | Wind** | Luminosity | Snow |
|---|---|---|---|---|---|---|---|
| 1777937243 | 26.11° C | 59% | 1006.4 hPa | 0 mm | - | 127 W/m² | - |
| 1777936939 | 26.11° C | 59% | 1006.3 hPa | 0 mm | - | 133 W/m² | - |
| 1777936636 | 26.67° C | 59% | 1006.4 hPa | 0 mm | - | 149 W/m² | - |
| 1777936333 | 26.67° C | 58% | 1006.7 hPa | 0 mm | - | 156 W/m² | - |
| 1777936029 | 27.22° C | 58% | 1006.9 hPa | 0 mm | - | 150 W/m² | - |
| 1777935728 | 27.22° C | 56% | 1006.7 hPa | 0 mm | - | 160 W/m² | - |
| 1777935426 | 27.22° C | 56% | 1006.6 hPa | 0 mm | - | 212 W/m² | - |
| 1777935121 | 27.78° C | 56% | 1006.9 hPa | 0 mm | - | 146 W/m² | - |
| 1777934819 | 27.78° C | 55% | 1006.9 hPa | 0 mm | - | 331 W/m² | - |
| 1777934515 | 27.78° C | 56% | 1006.9 hPa | 0 mm | - | 318 W/m² | - |
| 1777934213 | 27.78° C | 55% | 1007 hPa | 0 mm | - | 318 W/m² | - |
| 1777933908 | 27.78° C | 56% | 1006.7 hPa | 0 mm | - | 384 W/m² | - |
| 1777933605 | 27.78° C | 56% | 1006.6 hPa | 0 mm | - | 358 W/m² | - |
| 1777933302 | 28.33° C | 55% | 1006.7 hPa | 0 mm | - | 383 W/m² | - |
| 1777933000 | 27.78° C | 55% | 1006.7 hPa | 0 mm | - | 441 W/m² | - |
| 1777932696 | 27.22° C | 55% | 1007.1 hPa | 0 mm | - | 372 W/m² | - |
| 1777932393 | 27.22° C | 56% | 1007.1 hPa | 0 mm | - | 434 W/m² | - |
| 1777932091 | 27.22° C | 56% | 1007.2 hPa | 0 mm | - | 198 W/m² | - |
| 1777931787 | 27.78° C | 55% | 1007.2 hPa | 0 mm | - | 350 W/m² | - |
| 1777931485 | 28.33° C | 53% | 1007.3 hPa | 0 mm | - | 458 W/m² | - |
| 1777931180 | 28.89° C | 54% | 1007.4 hPa | 0 mm | - | 574 W/m² | - |
| 1777930877 | 28.33° C | 54% | 1007.6 hPa | 0 mm | - | 664 W/m² | - |
| 1777930573 | 27.78° C | 55% | 1007.7 hPa | 0 mm | - | 270 W/m² | - |
| 1777930270 | 27.78° C | 55% | 1007.7 hPa | 0 mm | - | 238 W/m² | - |
| 1777929966 | 28.33° C | 54% | 1007.6 hPa | 0 mm | - | 541 W/m² | - |
* Rain latest hour (hover to see other rain measurements)
** Current wind speed in m/s (hover to see current wind gust speed)